SPACEMOBILE-004

导读

SPACEMOBILE-004是美国AST SpaceMobile公司研制的卫星,于2024年9月12日发射。该卫星隶属于BlueBird系列,属于低轨卫星,目标是搭建空间蜂窝宽带网络,可直接与普通未修改移动设备连接,能在地面蜂窝信号覆盖外提供高速移动宽带服务,旨在填补全球网络覆盖空白,消除连接鸿沟。

Basic Information
目录编号:
61049
目录名称:
SPACEMOBILE-004
国际标识:
2024-163E
轨道中心:
EARTH
卫星名称:
SPACEMOBILE-004
卫星全名:
SPACEMOBILE-004
卫星状态:
在轨 (已飞行722 天)
发射日期:
2024-09-12 UTC
国别 :
美国 (US)
星等 :
--
Orbit Information
数据来源 国际轨道数据
星历时间: 2026-09-03T12:18:44+0800
1天前
查看轨道信息
半长轴: 6882.223km
偏心率: 0.00077
轨道倾角: 52.969°
近地点辐角 31.704°
升交点赤经 310.336°
平近点角 328.442°
近地点: 498.786km
远地点: 509.386km
周期: 94.701分钟
每日圈数: 15.205816
Detailed Information
使用方式:
暂无
2D Orbit Map
3D Orbit Map
Orbit Altitude Analysis Chart
Orbit Inclination Analysis Chart
Orbit Comprehensive Analysis Chart
View Comprehensive Chart
Conjunction Data List
Event ID Objects TCA Miss Dist (km) Collision Risk Probability Collision Risk Index (CRI) Action
CDM_260829-123903-605006-104921
2026-08-29T
12:39:27+0000
0.326 km
远距离
3.0763E-4 高风险 0.85
CDM_260904-180106-104906-581121
2026-09-04T
18:01:35+0000
1.856 km
极远距离
3.457588E-6 低风险 0.46
CDM_260906-232006-104906-863521
CANVAS (68635)
2026-09-06T
23:20:32+0000
1.884 km
极远距离
2.13266E-6 低风险 0.42